www.pogodaiklimat.ru

Погода и климат >> Архив погоды >> Россия >> Забайкальский край >> Хилок


АРХИВ ПОГОДЫ в Хилке

Время (UTC), дата Ветер
(напр.,м/с)
 
Видим.   Явления Облачность Т
(С)
Тd
(С)
f
(%)
Тe
(С)
Тes
(С)
Комфортность P
(гПа)
Po
(гПа)
Тmin
(С)
Tmax
(С)
R
(мм)
R24
(мм)
S
(см)
21 18.08 штиль 0 50 км 3/0
[Ci fib]
+8.0 +7.1 94 +7 +7 1012.3 919.5
00 19.08 В 1 500 м туман ?/? +9.1 +8.3 95 +8 +8 1011.7 919.3 +7.4
03 19.08 В 2 50 км {туман} 6/4 1000 м
[Sc Ci fib]
+16.7 +10.9 69 +17 +23 1007.3 917.7
06 19.08 Ю 3 50 км гроза без осадков {туман} 8/8 600 м
[Cb calv]
+12.3 +10.7 90 +11 +13 1007.9 916.9
09 19.08 В 1 50 км в посл. час ливневой дождь {гроза} 8/8 600 м
[Cb calv]
+14.6 +11.8 83 +15 +16 1006.1 916.0
12 19.08 З 3 50 км {гроза, ливн. осадки} 9/8 600 м
[Cb calv Ci fib]
+12.8 +11.3 91 +11 +11 1007.6 916.3 +17.9 17
15 19.08 штиль 0 50 км 8/4 1000 м
[Cu Sc Ci fib]
+12.0 +10.7 92 +11 +11 1008.2 916.6
18 19.08 З 2 20 км слаб. дождь 10/10 600 м
[Sc]
+11.4 +10.0 91 +10 +10 1008.5 916.7
21 19.08 З 2 50 км {дождь} 8/6 600 м
[Cu Sc Ci fib]
+10.2 +8.8 91 +9 +9 1009.1 916.9
00 20.08 Ю 4 50 км {дождь} 8/4 1000 м
[Cu Sc Ci fib]
+10.8 +9.4 91 +8 +9 1009.4 917.7 +10.2 3
03 20.08 З 6 50 км 6/4 1000 м
[Cu med, cong Ci fib]
+16.3 +9.5 64 +15 +18 1007.8 918.0
06 20.08 З 6-10
{11}
50 км 8/6 600 м
[Cb calv Ci fib]
+19.4 +7.9 47 +20 +21 1006.5 917.7
09 20.08 З 8-11
{13}
50 км 8/6 600 м
[Cb calv Ci fib]
+19.3 +6.1 42 +19 +19 1006.7 917.8
12 20.08 З 5
{13}
50 км 6/6 600 м
[Cb calv]
+14.8 +6.9 59 +13 +13 1010.4 919.8 +19.9
15 20.08 З 2 50 км 4/3 1000 м
[Cu Sc Ci fib]
+11.2 +7.9 80 +10 +10 1012.5 920.7
18 20.08 З 4 50 км 6/4 1000 м
[Cu Sc Ci fib]
+10.8 +7.6 81 +8 +8 1013.2 921.2
21 20.08 З 4 50 км 8/8 600 м
[Cu Sc]
+10.8 +7.6 81 +8 +8 1013.7 921.7
00 21.08 З 5 50 км 4/4 1000 м
[Cu Sc]
+12.1 +7.8 75 +10 +11 1013.6 922.0 +9.5
03 21.08 З 5 50 км 6/6 600 м
[Cu med, cong]
+15.6 +8.2 61 +14 +17 1012.2 921.7
06 21.08 СЗ 4 50 км 6/6 600 м
[Cb calv]
+18.1 +6.8 48 +18 +21 1010.9 921.2
09 21.08 СЗ 4 50 км 4/4 600 м
[Cu med, cong]
+20.2 +5.2 37 +21 +22 комфорт 1010.4 921.4
12 21.08 СЗ 1 50 км 4/3 1000 м
[Cu med, cong Ci fib]
+15.0 +7.9 62 +16 +16 1012.6 921.9 +20.3
15 21.08 З 3 50 км 4/0
[Ci fib]
+9.2 +6.7 84 +7 +7 1015.9 923.1
18 21.08 З 1 50 км 3/0
[Ci fib]
+5.4 +4.2 92 +4 +4 1018.2 924.0
21 21.08 З 2 50 км ясно +3.2 +2.3 94 0 0 1020.0 924.9
00 22.08 В 1 500 м туман ?/? +4.2 +3.4 95 +3 +3 1020.4 925.6 +2.5
03 22.08 ЮВ 1 50 км {туман} 4/3 1000 м
[Cu hum Ci fib]
+15.6 +7.8 60 +16 +25 1016.0 925.2
06 22.08 ЮЗ 1 50 км {туман} 8/6 600 м
[Cb calv Ci fib]
+20.8 +2.1 29 +22 +27 комфорт 1012.6 923.9
09 22.08 ЮВ 1 50 км 3/3 1000 м
[Cu med, cong]
+21.4 +2.7 29 +21 +24 комфорт 1012.1 923.2
12 22.08 З 1 50 км 3/0
[Ci fib]
+14.2 +9.7 74 +15 +15 1014.5 923.5 +22.5
15 22.08 В 1 50 км ясно +6.7 +5.4 91 +6 +6 1018.4 924.6
18 22.08 ЮВ 1 50 км ясно +4.6 +3.5 93 +3 +3 1019.4 924.8
21 22.08 В 2 50 км 4/4 1000 м
[Sc]
+5.2 +4.2 93 +2 +2 1018.9 924.5
00 23.08 В 3 500 м туман ?/? +7.0 +6.0 93 +4 +4 1018.4 924.7 +3.9
03 23.08 В 4 50 км {туман} 3/3 1000 м
[Cu med, cong]
+18.2 +10.6 61 +18 +23 1012.6 922.9
06 23.08 В 3 50 км {туман} 4/3 1000 м
[Cu med, cong Ci fib]
+24.4 +9.8 40 +25 +32 комфорт 1008.4 920.9
09 23.08 В 3 50 км 3/3 1000 м
[Cu hum]
+25.2 +7.1 31 +25 +27 комфорт 1006.5 919.3
12 23.08 ЮВ 2 50 км ясно +17.9 +10.9 64 +18 +18 1008.9 919.5 +25.4
15 23.08 ЮВ 2 50 км ясно +12.8 +9.2 79 +12 +12 1011.4 920.2
18 23.08 ЮВ 3 50 км ясно +11.1 +9.0 87 +9 +9 1011.5 919.8
21 23.08 ЮВ 3 50 км ясно +9.5 +7.7 89 +7 +7 1012.1 919.8
00 24.08 В 3 50 км 3/0
[Ci fib]
+12.0 +8.8 81 +10 +12 1011.2 919.8 +8.9
03 24.08 СВ 3 50 км 4/3 1000 м
[Cu Sc Ci fib]
+19.8 +11.5 59 +22 +28 комфорт 1007.6 918.9
06 24.08 СВ 4 50 км 6/4 1000 м
[Cb calv Ci fib]
+25.0 +12.3 45 +27 +31 жарко 1004.0 917.0
09 24.08 ЮВ 2 50 км 8/8 600 м
[Cb calv]
+23.8 +12.2 48 +26 +26 жарко 1002.7 915.5
12 24.08 СВ 1 50 км 8/6 600 м
[Cb calv Ci fib]
+19.4 +11.8 61 +22 +22 комфорт 1004.7 916.1 +26.5
15 24.08 ЮЗ 1 50 км 6/6 600 м
[Cu Sc]
+15.6 +11.8 78 +16 +16 1006.0 916.2
18 24.08 штиль 0 50 км 8/6 600 м
[Cu Sc Ci fib]
+13.2 +11.4 89 +13 +13 1007.2 916.6
21 24.08 З 3 20 км слаб. дождь 10/10 600 м
[Sc]
+14.1 +12.5 90 +13 +13 1007.2 916.8
00 25.08 З 4 50 км {дождь} 8/6 600 м
[Cu Sc Ci fib]
+14.4 +11.2 81 +13 +14 1008.6 918.2 +12.6 10
03 25.08 СЗ 4
{10}
50 км 8/8 600 м
[Cb calv]
+14.4 +11.7 84 +13 +14 1009.8 919.3
06 25.08 З 6
{10}
50 км 8/6 600 м
[Cb calv Ci fib]
+17.9 +9.2 57 +17 +19 1008.3 918.9
09 25.08 З 5
{10}
50 км 3/3 <50 м
[]
+20.0 +5.1 38 +21 +22 комфорт 1007.7 918.9
12 25.08 З 1
{10}
50 км 4/3 1000 м
[Cu med, cong Ci fib]
+14.1 +7.7 65 +15 +15 1010.1 919.4 +20.3
15 25.08 З 3 50 км 4/0
[Ci fib]
+9.4 +6.4 82 +7 +7 1013.0 920.5
18 25.08 В 1 50 км 3/0
[Ci fib]
+5.9 +4.5 91 +5 +5 1014.6 920.9

 

Местоположение метеостанции Хилок (Забайкальский край, Россия): широта 51.37 долгота 110.40 высота над уровнем моря 802 м.

В архиве по умолчанию представлена погода в Хилке за последнюю неделю. Архивные данные за месяц целиком и за предыдущие месяцы, начиная с января 2011 года, Вы можете получить, выбрав интересующий диапазон дат из раскрывающегося списка и нажав кнопку "Ввод!".


*Определитесь, кто Вы:
робот инопланетянин человек

Внимание! Время в таблицах - всемирное. Для получения местного времени необходимо прибавить поправку, которая равна 9 ч.

Смотрите также архив погоды в соседних городах и на ближайших метеорологических станциях:

Погода в Черемхово (Забайкальский край, Россия) (90 км)
Погода в Хоринске (Бурятия, Россия) (101 км)
Погода в Петровском Заводе (Забайкальский край, Россия) (111 км)
Погода в Могзоне (Забайкальский край, Россия) (118 км)
Погода в Усть-Зазе (Бурятия, Россия) (129 км)
Погода в Улетах (Забайкальский край, Россия) (139 км)
Погода в Сосново-Озерском (Бурятия, Россия) (149 км)
Погода в Новой Курбе (Бурятия, Россия) (150 км)
Погода в Замокте (Бурятия, Россия) (159 км)
Погода в Красном Чикое (Забайкальский край, Россия) (163 км)

Пояснения к столбцам:

Ветер - указаны скорость ветра в м/с - средняя за 10 мин, порывы в срок и между сроками (в фигурных скобках) и направление, откуда дует ветер: С - северный, СВ - северо-восточный, В - восточный, ЮВ - юго-восточный, Ю - южный, ЮЗ - юго-западный, З - западный, СЗ - северо-западный.
Видимость - горизонтальная дальность видимости в метрах или километрах. При видимости от 1 до 10 км при отсутствии осадков обычно наблюдается дымка, при ухудшении видимости до 1 км и менее - туман. В сухую погоду видимость может ухудшаться дымом, пылью или мглою.
Явления - указаны атмосферные явления, наблюдавшиеся в срок или в последний час перед сроком; фигурными скобками обозначены явления, наблюдавшиеся между сроками (за 1-3 часа до срока); квадратными скобками обозначены град или гололедные отложения с указанием их диаметра в мм.
Облачность - указаны через наклонную черту общая и нижняя облачность в баллах и высота нижней границы облаков в метрах; квадратными скобками обозначены формы облаков: Ci - перистые, Cs - перисто-слоистые, Cc - перисто-кучевые, Ac - высококучевые, As - высокослоистые, Sc - слоисто-кучевые, Ns - слоисто-дождевые, Cu - кучевые, Cb - кучево-дождевые. Подробнее классификацию облаков см. в Атласе облаков (PDF).
T - Температура воздуха - температура, измеренная на высоте 2 м над землей.
Td - Температура точки росы - температура, при понижении до которой содержащийся в воздухе водяной пар достигнет насыщения.
f - Относительная влажность воздуха - влажноcть воздуха, измеренная на высоте 2 м над землей.
Te - Эффективная температура - температура, которую ощущает одетый по сезону человек в тени. Характеристика душности погоды. При расчете учитывается влияние влажности воздуха и скорости ветра на теплоощущения человека.
Tes - Эффективная температура на солнце - температура, которую ощущает человек, с поправкой на солнечный нагрев. Характеристика знойности погоды. Зависит от высоты солнца над горизонтом, облачности и скорости ветра. Ночью, в пасмурную погоду, а также при ветре 12 м/с и более поправка равна нулю.
P - Атмосферное давление - приведенное к уровню моря атмосферное давление.
Po - Атмосферное давление - измеренное на уровне метеостанции атмосферное давление.
Tmin - Минимальная температура - минимум температуры воздуха на высоте 2 м над землей.
Tmax - Максимальная температура - максимум температуры воздуха на высоте 2 м над землей.
R - Количество осадков - Количество выпавших осадков за период времени, мм. При наведении курсора мыши на число - период времени, за который выпало указанное количество осадков.
R24 - Количество осадков - Количество выпавших осадков за 24 часа, мм.
S - Снежный покров - Высота снежного покрова, см. При наведении курсора мыши на число - состояние снежного покрова и степень покрытия местности в баллах.